Regional Weather Roundup
Issued by NWS

Home | Current Version | Previous Version | Graphics & Text | Print | Product List | Glossary On
Versions: 1 2 3 4 5 6 7 8 9 10 11 12 13 14 15 16 17 18 19 20 21 22 23 24 25 26 27 28 29 30 31 32 33 34 35 36 37 38 39 40 41 42 43 44 45 46 47 48
000
ASUS45 KCYS 190310
RWRWY

WYOMING REGIONAL WEATHER ROUNDUP
NATIONAL WEATHER SERVICE CHEYENNE WY
900 PM MDT SAT APR 18 2015

NOTE:  "FAIR" INDICATES FEW OR NO CLOUDS BELOW 12,000 FEET
WITH NO SIGNIFICANT WEATHER AND/OR OBSTRUCTIONS TO VISIBILITY.

WYZ001-190400-
YELLOWSTONE NATIONAL PARK

CITY           SKY/WX    TMP DP  RH WIND       PRES   REMARKS
LK YELLOWSTONE   N/A     34  21  59 CALM      30.19R
W YELLOWSTONE  NOT AVBL

$$
WYZ002>013-054>058-071-098>099-190400-
NORTHERN WYOMING

CITY           SKY/WX    TMP DP  RH WIND       PRES   REMARKS
JACKSON        FAIR      46  25  42 N14       30.07R
CODY           CLOUDY    39  30  70 NW13      30.22R WCI  32
GREYBULL       MOCLDY    48  26  42 NW30G38   30.12R
WORLAND        CLOUDY    48  27  44 NW22G35   30.11R
SHERIDAN       CLOUDY    43  34  70 NW17      30.20R
BUFFALO        MOCLDY    40  33  76 NW29G43   30.14R WCI  29
GILLETTE       CLOUDY    46  33  60 N18G25    30.07R
HULETT         CLOUDY    45  39  81 N10       30.06R
NEWCASTLE      LGT RAIN  43  41  93 N15       30.02R

$$
WYZ014>020-022>026-101>103-190400-
CENTRAL WYOMING

CITY           SKY/WX    TMP DP  RH WIND       PRES   REMARKS
BIG PINEY      CLOUDY    47  26  44 E8        30.06R
PINEDALE       CLOUDY    41  28  60 CALM      30.06R
DUBOIS         FAIR      39  28  65 SE13      30.08R WCI  32
LANDER         CLOUDY    46  32  58 N9        30.12R
RIVERTON       MOCLDY    42  31  64 N24G38    30.10R
CASPER         LGT RAIN  39  36  89 E6        30.09R WCI  35
DOUGLAS        RAIN      39  37  92 NW14      30.07R FOG     WCI  31

$$
WYZ021-027>030-104>119-190400-
SOUTHERN WYOMING

CITY           SKY/WX    TMP DP  RH WIND       PRES   REMARKS
EVANSTON       FAIR      45  21  38 N8        30.06R
KEMMERER       FAIR      43  21  42 NE14G20   30.09R
FORT BRIDGER   CLOUDY    48  32  53 SE8G18    30.09R
ROCK SPRINGS   LGT RAIN  41  33  73 SE14      30.09R
DIXON          CLOUDY    38  33  82 NW6       30.09R WCI  34
RAWLINS        CLOUDY    35  35 100 NW3       30.07R
SARATOGA       LGT RAIN  32  32 100 NW9       30.07R WCI  24
LARAMIE        CLOUDY    33  31  92 NW9       30.00R WCI  25
CHEYENNE       FAIR      37  31  78 N16G23    29.96R WCI  28
TORRINGTON     FAIR      43  38  82 NW12      29.95R
PINE BLUFFS    FAIR      39  37  93 N17       29.95R WCI  30

$$


USA.gov is the U.S. government's official web portal to all federal, state and local government web resources and services.